Torna al catalogo

STARLINK-35503

AttivoComunicazioniVLEO
NORAD 66245·PAYLOAD·🇺🇸 United States

Lanciato Oct 29, 2025 da Cape Canaveral Space Force Station

Loading…

Prossimi Passaggi (prossime 24 ore)

TLE

AggiornatoSource: CelesTrak SupGP

Epoca: Sep 14, 2026, 14:38 UTC

1 66245C 25245M   26257.61020833  .00035931  00000+0  10614-2 0  2577
2 66245  53.1568 125.2231 0001227  92.6971  42.4519 15.34378740    13

Traccia STARLINK-35503 in tempo reale con AllMySat

Download on the App Store